FW0824 Weather Reports


Display with metric or nautical units.
time (UTC)temp
F
wind
direction
speed
MPH
gust
MPH
rain 1hr
in
rain 24hr
in
rain mn
in
humidity
%
barometer
mb
20260906183202 79 178 3.0 8.0 0.00 0.00 0.00 74 1019.5
20260906182701 79 133 3.0 8.0 0.00 0.00 0.00 74 1019.6
20260906182201 79 168 3.0 11.0 0.00 0.00 0.00 75 1019.6
20260906181702 78 155 3.0 11.0 0.00 0.00 0.00 75 1019.6
20260906180702 78 138 3.0 9.0 0.00 0.00 0.00 76 1019.7
20260906180201 78 126 3.0 9.0 0.00 0.00 0.00 76 1019.6
20260906175701 78 65 3.0 8.0 0.00 0.00 0.00 77 1019.7
20260906175201 77 152 3.0 8.0 0.00 0.00 0.00 78 1019.9
20260906174701 77 140 3.0 8.0 0.00 0.00 0.00 79 1019.9
20260906174203 76 146 4.0 13.0 0.00 0.00 0.00 79 1020.0
20260906173700 76 196 4.0 13.0 0.00 0.00 0.00 79 1020.1
20260906172703 75 162 4.0 10.0 0.00 0.00 0.00 80 1020.0
20260906172201 75 212 5.0 10.0 0.00 0.00 0.00 80 1020.1
20260906170701 75 144 5.0 12.0 0.00 0.00 0.00 81 1020.3
20260906170203 75 171 6.0 12.0 0.00 0.00 0.00 81 1020.1
20260906165701 75 159 6.0 14.0 0.00 0.00 0.00 81 1020.3
20260906165201 74 188 6.0 14.0 0.00 0.00 0.00 82 1020.2
20260906164702 74 250 5.0 13.0 0.00 0.00 0.00 83 1020.4
20260906164201 74 194 5.0 13.0 0.00 0.00 0.00 83 1020.4
20260906163700 74 138 4.0 12.0 0.00 0.00 0.00 83 1020.5
20260906163201 73 183 4.0 12.0 0.00 0.00 0.00 84 1020.5
20260906162702 73 157 5.0 14.0 0.00 0.00 0.00 84 1020.5
20260906162202 73 173 5.0 14.0 0.00 0.00 0.00 84 1020.6
20260906161701 73 166 5.0 11.0 0.00 0.00 0.00 84 1020.6
20260906161201 73 189 4.0 11.0 0.00 0.00 0.00 85 1020.6
20260906160702 72 195 4.0 9.0 0.00 0.00 0.00 85 1020.9
20260906160202 72 120 3.0 9.0 0.00 0.00 0.00 85 1020.9
20260906155701 72 134 3.0 11.0 0.00 0.00 0.00 85 1020.6
20260906155201 72 140 3.0 11.0 0.00 0.00 0.00 85 1020.6
20260906154700 72 192 3.0 9.0 0.00 0.00 0.00 86 1020.4
20260906153702 72 159 3.0 10.0 0.00 0.00 0.00 86 1020.5
20260906153202 72 125 3.0 10.0 0.00 0.00 0.00 86 1020.5
20260906152703 72 146 2.0 8.0 0.00 0.00 0.00 86 1020.7
20260906152201 72 144 3.0 9.0 0.00 0.00 0.00 86 1020.7
20260906151701 72 140 3.0 9.0 0.00 0.00 0.00 86 1021.1
20260906151202 72 193 2.0 9.0 0.00 0.00 0.00 86 1021.1
20260906150701 72 167 2.0 8.0 0.00 0.00 0.00 86 1020.9
20260906145703 72 166 3.0 9.0 0.00 0.00 0.00 86 1020.6
20260906145201 72 148 3.0 9.0 0.00 0.00 0.00 86 1020.6
20260906144701 72 117 5.0 12.0 0.00 0.00 0.00 86 1020.7
20260906144202 72 132 5.0 12.0 0.00 0.00 0.00 86 1020.6
20260906143701 72 153 4.0 12.0 0.00 0.00 0.00 86 1020.6
20260906142703 72 172 5.0 17.0 0.00 0.00 0.00 85 1020.4
20260906141201 72 115 3.0 9.0 0.00 0.00 0.00 87 1020.5
20260906140701 72 145 3.0 9.0 0.00 0.00 0.00 87 1020.4
20260906140201 72 147 3.0 8.0 0.00 0.00 0.00 87 1020.5
20260906135701 72 158 3.0 8.0 0.00 0.00 0.00 87 1020.6
20260906135202 72 144 3.0 8.0 0.00 0.00 0.00 87 1020.5
20260906134701 72 158 3.0 8.0 0.00 0.00 0.00 88 1020.5
20260906134200 72 117 3.0 9.0 0.00 0.00 0.00 88 1020.4
20260906133700 72 136 3.0 9.0 0.00 0.00 0.00 88 1020.3
20260906132701 71 153 3.0 8.0 0.00 0.00 0.00 89 1020.3
20260906132203 71 161 2.0 6.0 0.00 0.00 0.00 89 1020.1
20260906131200 71 152 2.0 5.0 0.00 0.00 0.00 89 1020.2
20260906130702 71 151 2.0 8.0 0.00 0.00 0.00 90 1020.2
20260906125701 70 155 2.0 10.0 0.00 0.00 0.00 90 1020.1
20260906125201 70 142 2.0 10.0 0.00 0.00 0.00 90 1020.1
20260906124700 70 145 2.0 5.0 0.00 0.00 0.00 90 1020.1
20260906124202 70 146 2.0 5.0 0.00 0.00 0.00 91 1020.2
20260906123701 70 139 1.0 4.0 0.00 0.00 0.00 91 1020.0
20260906123203 70 140 1.0 4.0 0.00 0.00 0.00 91 1019.9
20260906122701 70 140 2.0 7.0 0.00 0.00 0.00 91 1020.1
20260906122202 69 139 2.0 7.0 0.00 0.00 0.00 91 1020.0
20260906121201 69 157 1.0 6.0 0.00 0.00 0.00 91 1020.1
20260906120702 69 160 1.0 6.0 0.00 0.00 0.00 91 1020.0
20260906120204 69 142 1.0 5.0 0.00 0.00 0.00 91 1019.9
20260906115702 69 142 1.0 5.0 0.00 0.00 0.00 91 1019.8
20260906115201 70 142 1.0 4.0 0.00 0.00 0.00 90 1019.8
20260906114700 70 142 1.0 4.0 0.00 0.00 0.00 90 1019.8
20260906114200 70 143 1.0 3.0 0.00 0.00 0.00 91 1019.8
20260906113700 70 144 1.0 3.0 0.00 0.00 0.00 90 1019.8
20260906113202 70 144 1.0 4.0 0.00 0.00 0.00 90 1019.7
20260906112703 70 144 1.0 4.0 0.00 0.00 0.00 90 1019.7
20260906112200 70 153 1.0 6.0 0.00 0.00 0.00 90 1019.5
20260906111702 70 153 1.0 6.0 0.00 0.00 0.00 90 1019.5
20260906111201 70 168 1.0 5.0 0.00 0.00 0.00 90 1019.4
20260906110700 70 169 1.0 5.0 0.00 0.00 0.00 90 1019.4
20260906105702 71 173 1.0 3.0 0.00 0.00 0.00 90 1019.3
20260906105201 71 173 1.0 3.0 0.00 0.00 0.00 90 1019.5
20260906104702 71 173 1.0 3.0 0.00 0.00 0.00 90 1019.5
20260906104201 71 173 1.0 4.0 0.00 0.00 0.00 90 1019.5
20260906103702 71 175 1.0 5.0 0.00 0.00 0.00 90 1019.4
20260906103201 71 159 2.0 6.0 0.00 0.00 0.00 90 1019.5
20260906102701 71 148 2.0 6.0 0.00 0.00 0.00 89 1019.4
20260906102201 71 148 2.0 6.0 0.00 0.00 0.00 89 1019.3
20260906101702 71 150 1.0 6.0 0.00 0.00 0.00 89 1019.2
20260906101202 71 172 2.0 5.0 0.00 0.00 0.00 89 1019.3
20260906100701 71 176 1.0 5.0 0.00 0.00 0.00 89 1019.3
20260906100203 71 154 1.0 6.0 0.00 0.00 0.00 89 1019.3
20260906095701 71 156 2.0 6.0 0.00 0.00 0.00 89 1019.3
20260906095202 71 150 2.0 6.0 0.00 0.00 0.00 89 1019.0
20260906094702 71 150 2.0 6.0 0.00 0.00 0.00 89 1018.8
20260906094202 71 137 2.0 8.0 0.00 0.00 0.00 89 1018.6
20260906093702 71 157 2.0 8.0 0.00 0.00 0.00 89 1018.6
20260906093202 71 150 2.0 7.0 0.00 0.00 0.00 89 1018.5
20260906092701 71 144 1.0 7.0 0.00 0.00 0.00 89 1018.5
20260906092201 71 129 0.0 4.0 0.00 0.00 0.00 89 1018.4
20260906091705 71 129 1.0 4.0 0.00 0.00 0.00 89 1018.4
20260906091202 71 138 0.0 7.0 0.00 0.00 0.00 89 1018.4
20260906090702 71 138 1.0 7.0 0.00 0.00 0.00 89 1018.5
20260906090201 72 139 1.0 7.0 0.00 0.00 0.00 89 1018.6
20260906085701 72 142 2.0 7.0 0.00 0.00 0.00 88 1018.7
20260906085201 72 146 2.0 6.0 0.00 0.00 0.00 88 1018.7
20260906084701 72 150 1.0 7.0 0.00 0.00 0.00 88 1018.6
20260906084201 72 151 2.0 7.0 0.00 0.00 0.00 88 1018.6
20260906083700 72 144 2.0 6.0 0.00 0.00 0.00 88 1018.6
20260906083154 72 157 2.0 5.0 0.00 0.00 0.00 88 1018.5
20260906082649 72 165 1.0 5.0 0.00 0.00 0.00 88 1018.5
20260906082142 72 97 1.0 4.0 0.00 0.00 0.00 88 1018.5
20260906081637 72 102 1.0 2.0 0.00 0.00 0.00 87 1018.5
20260906081130 72 102 1.0 2.0 0.00 0.00 0.00 87 1018.5
20260906080630 73 102 2.0 4.0 0.00 0.00 0.00 87 1018.5
20260906080130 73 102 1.0 6.0 0.00 0.00 0.00 87 1018.3
20260906075630 73 131 1.0 6.0 0.00 0.00 0.00 87 1018.4
20260906074630 73 126 1.0 4.0 0.00 0.00 0.00 87 1018.4
20260906074130 73 140 1.0 3.0 0.00 0.00 0.00 87 1018.4
20260906073629 73 141 1.0 3.0 0.00 0.00 0.00 87 1018.5
20260906073130 73 141 1.0 3.0 0.00 0.00 0.00 86 1018.6
20260906072630 73 140 1.0 3.0 0.00 0.00 0.00 86 1018.7
20260906072131 74 141 1.0 3.0 0.00 0.00 0.00 86 1018.6
20260906071628 74 141 1.0 3.0 0.00 0.00 0.00 86 1018.6
20260906071130 74 146 1.0 3.0 0.00 0.00 0.00 86 1018.7
20260906070629 74 146 1.0 7.0 0.00 0.00 0.00 86 1018.8
20260906070129 74 146 1.0 7.0 0.00 0.00 0.00 85 1019.0
20260906065628 74 111 1.0 6.0 0.00 0.00 0.00 85 1019.0
20260906065130 74 159 1.0 6.0 0.00 0.00 0.00 85 1019.1
20260906064126 74 156 1.0 5.0 0.00 0.00 0.00 85 1019.0
20260906063113 74 155 1.0 5.0 0.00 0.00 0.00 85 1018.9
20260906062614 74 155 1.0 5.0 0.00 0.00 0.00 85 1018.9
20260906062115 74 157 0.0 5.0 0.00 0.00 0.00 85 1019.0
20260906061612 74 157 0.0 5.0 0.00 0.00 0.00 85 1019.0
20260906061114 74 157 0.0 1.0 0.00 0.00 0.00 85 1018.9
20260906060612 74 157 0.0 1.0 0.00 0.00 0.00 85 1019.0
20260906060110 74 157 1.0 3.0 0.00 0.00 0.00 85 1018.9
20260906055610 74 157 1.0 5.0 0.00 0.00 0.00 85 1018.8
20260906054609 74 161 1.0 5.0 0.00 0.00 0.00 85 1018.7
20260906054108 74 184 1.0 3.0 0.00 0.00 0.00 85 1018.7
20260906053608 74 184 0.0 3.0 0.00 0.00 0.00 85 1018.7
20260906052604 74 185 0.0 3.0 0.00 0.00 0.00 85 1018.8
20260906052102 74 185 0.0 1.0 0.00 0.00 0.00 85 1019.0
20260906051102 74 185 0.0 3.0 0.00 0.00 0.00 85 1019.1
20260906050601 74 185 1.0 3.0 0.00 0.00 0.00 85 1019.1
20260906045601 74 187 0.0 2.0 0.00 0.00 0.00 85 1019.1
20260906044549 74 188 0.0 1.0 0.00 0.00 0.00 85 1019.0
20260906044043 74 188 0.0 0.0 0.00 0.00 0.00 84 1019.1
20260906043030 74 188 0.0 0.0 0.00 0.00 0.00 84 1019.2
20260906042530 74 188 0.0 0.0 0.00 0.00 0.00 84 1019.3
20260906042031 75 188 0.0 0.0 0.00 0.00 0.00 84 1019.4
20260906041531 75 188 0.0 2.0 0.00 0.00 0.00 84 1019.3
20260906041029 75 188 0.0 2.0 0.00 0.00 0.00 84 1019.3
20260906040529 75 188 0.0 1.0 0.00 0.00 0.00 83 1019.3
20260906040031 75 188 0.0 1.0 0.00 0.00 0.00 83 1019.3
20260906035529 75 188 0.0 1.0 0.00 0.00 0.00 83 1019.3
20260906035030 75 188 0.0 1.0 0.00 0.00 0.00 83 1019.3
20260906033529 76 188 0.0 0.0 0.00 0.00 0.00 81 1019.2
20260906033029 76 188 0.0 1.0 0.00 0.00 0.00 81 1019.2
20260906032531 76 188 0.0 1.0 0.00 0.00 0.00 81 1019.3
20260906032029 76 188 0.0 1.0 0.00 0.00 0.00 80 1019.2
20260906031531 76 188 0.0 1.0 0.00 0.00 0.00 81 1019.2
20260906031028 76 188 0.0 1.0 0.00 0.00 0.00 80 1019.1
20260906030527 76 188 0.0 2.0 0.00 0.00 0.00 80 1019.2
20260906030027 76 188 0.0 2.0 0.00 0.00 0.00 80 1019.2
20260906025526 76 188 0.0 2.0 0.00 0.00 0.00 80 1019.3
20260906025025 77 188 0.0 2.0 0.00 0.00 0.00 80 1019.3
20260906024024 77 188 1.0 2.0 0.00 0.00 0.00 80 1019.4
20260906023024 77 188 1.0 5.0 0.00 0.00 0.00 79 1019.4
20260906022020 77 184 2.0 4.0 0.00 0.00 0.00 79 1019.0
20260906021019 77 181 2.0 5.0 0.00 0.00 0.00 79 1018.7
20260906020020 77 144 2.0 7.0 0.00 0.00 0.00 78 1018.5
20260906015520 78 146 3.0 10.0 0.00 0.00 0.00 78 1018.4
20260906015019 78 153 4.0 12.0 0.00 0.00 0.00 78 1018.2
20260906014021 78 137 3.0 9.0 0.00 0.00 0.00 77 1018.0
20260906013517 78 157 3.0 10.0 0.00 0.00 0.00 77 1017.7
20260906013016 78 134 4.0 10.0 0.00 0.00 0.00 76 1017.6
20260906012516 79 140 4.0 9.0 0.00 0.00 0.00 76 1017.5
20260906011515 79 148 6.0 14.0 0.00 0.00 0.00 75 1017.1
20260906011015 79 144 5.0 14.0 0.00 0.00 0.00 75 1017.1
20260906010016 80 147 4.0 10.0 0.00 0.00 0.00 73 1016.9
20260906004516 82 218 2.0 7.0 0.00 0.00 0.00 69 1016.9
20260906004016 82 196 3.0 7.0 0.00 0.00 0.00 68 1016.6
20260906003513 82 188 3.0 7.0 0.00 0.00 0.00 67 1016.5
20260906002010 83 137 3.0 7.0 0.00 0.00 0.00 66 1016.3
20260906001509 83 94 2.0 5.0 0.00 0.00 0.00 66 1016.4
20260906000011 83 98 1.0 4.0 0.00 0.00 0.00 65 1016.4
20260905235509 83 97 2.0 8.0 0.00 0.00 0.00 64 1016.4
20260905234504 84 93 3.0 10.0 0.00 0.00 0.00 64 1016.2
20260905234002 84 91 2.0 10.0 0.00 0.00 0.00 64 1016.2
20260905232500 84 86 4.0 9.0 0.00 0.00 0.00 63 1016.0
20260905232001 84 71 4.0 9.0 0.00 0.00 0.00 63 1016.0
20260905231001 85 123 5.0 12.0 0.00 0.00 0.00 63 1016.1
20260905230501 85 63 5.0 12.0 0.00 0.00 0.00 62 1015.9
20260905230004 85 98 5.0 11.0 0.00 0.00 0.00 62 1015.9
20260905225501 85 89 3.0 11.0 0.00 0.00 0.00 62 1015.8
20260905225001 86 102 3.0 10.0 0.00 0.00 0.00 63 1015.7
20260905224501 85 94 3.0 10.0 0.00 0.00 0.00 62 1015.7
20260905224001 86 55 3.0 10.0 0.00 0.00 0.00 61 1015.7
20260905223502 86 139 4.0 10.0 0.00 0.00 0.00 61 1015.7
20260905223002 86 57 4.0 12.0 0.00 0.00 0.00 60 1015.8
20260905222001 86 92 2.0 9.0 0.00 0.00 0.00 59 1016.0
20260905221503 85 80 3.0 8.0 0.00 0.00 0.00 59 1016.0
20260905221002 85 135 3.0 8.0 0.00 0.00 0.00 60 1015.9
20260905220503 85 83 4.0 11.0 0.00 0.00 0.00 60 1015.9
20260905220003 85 88 5.0 11.0 0.00 0.00 0.00 61 1015.9
20260905215502 85 89 4.0 11.0 0.00 0.00 0.00 60 1016.1
20260905215001 86 96 4.0 11.0 0.00 0.00 0.00 61 1016.0
20260905214503 86 98 3.0 11.0 0.00 0.00 0.00 61 1016.1
20260905213500 85 63 4.0 9.0 0.00 0.00 0.00 62 1016.2
20260905213003 85 87 4.0 9.0 0.00 0.00 0.00 63 1016.2
20260905212502 85 76 4.0 12.0 0.00 0.00 0.00 63 1016.1
20260905212002 85 80 4.0 12.0 0.00 0.00 0.00 64 1016.1
20260905211002 85 9 5.0 13.0 0.00 0.00 0.00 66 1016.1
20260905210502 84 157 6.0 14.0 0.00 0.00 0.00 66 1016.0
20260905210000 84 32 7.0 14.0 0.00 0.00 0.00 66 1016.0
20260905205501 84 56 6.0 14.0 0.00 0.00 0.00 66 1016.2
20260905205002 84 96 6.0 12.0 0.00 0.00 0.00 67 1016.5
20260905204502 84 83 6.0 12.0 0.00 0.00 0.00 66 1016.8
20260905204003 84 59 3.0 10.0 0.00 0.00 0.00 66 1017.1
20260905203502 84 140 2.0 6.0 0.00 0.00 0.00 68 1017.2
20260905203003 83 92 2.0 10.0 0.00 0.00 0.00 68 1017.3
20260905202503 83 144 2.0 10.0 0.00 0.00 0.00 68 1017.4
20260905202002 83 160 2.0 6.0 0.00 0.00 0.00 69 1017.5
20260905200501 82 116 2.0 6.0 0.00 0.00 0.00 71 1017.7
20260905200001 82 118 2.0 7.0 0.00 0.00 0.00 70 1017.9
20260905195502 82 67 2.0 7.0 0.00 0.00 0.00 70 1018.1
20260905195003 82 133 1.0 4.0 0.00 0.00 0.00 70 1018.1
20260905194502 82 109 2.0 4.0 0.00 0.00 0.00 70 1018.2
20260905194003 82 109 2.0 7.0 0.00 0.00 0.00 69 1018.3
20260905193501 82 72 3.0 7.0 0.00 0.00 0.00 69 1018.3
20260905193001 82 151 2.0 7.0 0.00 0.00 0.00 70 1018.4
20260905192502 82 142 1.0 7.0 0.00 0.00 0.00 72 1018.5
20260905191956 81 180 1.0 5.0 0.00 0.00 0.00 72 1018.5
20260905190953 80 159 2.0 5.0 0.00 0.00 0.00 73 1018.5
20260905185953 80 53 2.0 6.0 0.00 0.00 0.00 74 1018.4
20260905184953 80 88 2.0 5.0 0.00 0.00 0.00 74 1018.4
20260905184454 80 232 2.0 5.0 0.00 0.00 0.00 75 1018.4
20260905183952 79 126 1.0 4.0 0.00 0.00 0.00 76 1018.5
20260905183454 79 126 1.0 5.0 0.00 0.00 0.00 77 1018.5